VR2OT-10 Weather Reports


time (UTC)temp
C
wind
direction
speed
KPH
gust
KPH
rain 1hr
cm
rain 24hr
cm
rain mn
cm
humidity
%
barometer
mb
20260505170218 20 90 14.5 25.7 0.00 0.00 0.00 92 1012.8
20260505164717 20 90 14.5 25.7 0.00 0.00 0.00 92 1012.9
20260505163218 -17 0.0 0.0 0.00 0.00 0.00
20260505161718 20 135 12.9 22.5 0.00 0.00 0.00 93 1013.1
20260505160217 20 90 14.5 29.0 0.00 0.00 0.00 93 1013.2
20260505153218 -17 0.0 0.0 0.00 0.00 0.00
20260505151717 20 90 6.4 12.9 0.00 0.00 0.00 93 1013.7
20260505150218 -17 0.0 0.0 0.00 0.00 0.00
20260505140218 20 90 9.7 19.3 0.00 0.00 0.00 92 1013.9
20260505130217 20 135 9.7 16.1 0.00 0.00 0.00 94 1013.6
20260505124718 20 135 9.7 16.1 0.00 0.00 0.00 92 1013.5
20260505123218 20 90 4.8 12.9 0.00 0.00 0.00 94 1013.4
20260505121717 20 135 4.8 11.3 0.00 0.00 0.00 93 1013.4
20260505120218 -17 0.0 0.0 0.00 0.00 0.00
20260505114717 20 135 9.7 14.5 0.00 0.00 0.00 93 1013.3
20260505113217 20 135 1.6 8.0 0.00 0.00 0.00 93 1013.1
20260505111718 20 90 1.6 4.8 0.00 0.00 0.00 92 1013.0
20260505110218 20 135 6.4 11.3 0.00 0.00 0.00 91 1012.9
20260505101718 20 90 11.3 22.5 0.00 0.00 0.00 91 1012.7
20260505100218 20 90 6.4 14.5 0.00 0.00 0.00 90 1012.6
20260505094718 20 135 4.8 14.5 0.00 0.00 0.00 89 1012.5
20260505093218 20 135 11.3 20.9 0.00 0.00 0.00 89 1012.4
20260505091717 20 135 11.3 17.7 0.00 0.00 0.00 90 1012.5
20260505090218 -17 0.0 0.0 0.00 0.00 0.00
20260505084718 20 90 11.3 22.5 0.00 0.00 0.00 88 1012.5
20260505083218 20 90 9.7 20.9 0.00 0.00 0.00 89 1012.5
20260505081718 20 90 14.5 22.5 0.00 0.00 0.00 89 1012.4
20260505080218 20 90 11.3 20.9 0.00 0.00 0.00 90 1012.6
20260505074717 20 135 8.0 17.7 0.00 0.00 0.00 89 1012.7
20260505073218 -17 0.0 0.0 0.00 0.00 0.00
20260505071718 20 90 9.7 20.9 0.00 0.00 0.00 90 1012.9
20260505070217 20 90 9.7 20.9 0.00 0.00 0.00 91 1013.2
20260505064717 20 135 9.7 17.7 0.00 0.00 0.00 92 1013.3
20260505063218 20 90 9.7 20.9 0.00 0.00 0.00 92 1013.4
20260505061717 20 135 11.3 17.7 0.00 0.00 0.00 92 1013.5
20260505060219 20 135 11.3 17.7 0.00 0.00 0.00 93 1013.7
20260505054718 19 135 14.5 20.9 0.00 0.00 0.00 94 1013.9
20260505053217 19 90 11.3 22.5 0.00 0.00 0.00 92 1014.4
20260505051717 19 90 11.3 20.9 0.00 0.00 0.00 91 1014.4
20260505050219 19 135 14.5 25.7 0.00 0.00 0.00 90 1014.5
20260505041718 19 135 16.1 29.0 0.00 0.00 0.00 91 1014.9
20260505040218 19 90 14.5 25.7 0.00 0.00 0.00 92 1015.2
20260505034718 19 90 14.5 25.7 0.00 0.00 0.00 91 1015.3
20260505033218 18 135 14.5 25.7 0.00 0.00 0.00 93 1015.4
20260505031717 18 135 12.9 20.9 0.00 0.00 0.00 92 1015.4
20260505030219 18 135 9.7 16.1 0.00 0.00 0.00 92 1015.7
20260505024718 18 135 9.7 17.7 0.00 0.00 0.00 92 1015.8
20260505023218 -17 0.0 0.0 0.00 0.00 0.00
20260505021718 18 135 14.5 22.5 0.00 0.00 0.00 91 1015.6
20260505020219 18 135 12.9 22.5 0.00 0.00 0.00 91 1015.7
20260505014718 18 135 12.9 22.5 0.00 0.00 0.00 92 1015.8
20260505013218 18 90 12.9 22.5 0.00 0.00 0.00 93 1015.8
20260505011718 18 135 12.9 22.5 0.00 0.00 0.00 93 1015.7
20260505010217 18 135 16.1 25.7 0.00 0.00 0.00 91 1015.6
20260505004717 -17 0.0 0.0 0.00 0.00 0.00
20260505003218 18 90 17.7 30.6 0.00 0.00 0.00 91 1015.3
20260505001717 18 90 14.5 25.7 0.00 0.00 0.00 91 1015.3
20260505000219 18 90 17.7 30.6 0.00 0.00 0.00 90 1014.9
20260504234718 18 135 19.3 30.6 0.00 0.00 0.00 91 1014.7
20260504233218 18 90 16.1 33.8 0.00 0.00 0.00 92 1014.5
20260504231717 19 90 12.9 22.5 0.00 0.00 0.00 92 1014.7
20260504230218 19 90 14.5 29.0 0.00 0.00 0.00 92 1014.6
20260504224717 -17 0.0 0.0 0.00 0.00 0.00
20260504223218 19 90 16.1 25.7 0.00 0.00 0.00 93 1014.4
20260504221717 19 135 12.9 22.5 0.00 0.00 0.00 92 1014.3
20260504220217 20 135 17.7 29.0 0.00 0.00 0.00 86 1014.4
20260504214718 20 135 17.7 25.7 0.00 0.00 0.00 83 1014.3
20260504213219 20 90 16.1 29.0 0.00 0.00 0.00 84 1013.9
20260504211718 20 90 14.5 25.7 0.00 0.00 0.00 83 1014.0
20260504210218 20 90 12.9 25.7 0.00 0.00 0.00 83 1014.1
20260504204717 20 90 14.5 24.1 0.00 0.00 0.00 83 1014.1
20260504203217 20 90 16.1 25.7 0.00 0.00 0.00 83 1013.8
20260504201717 20 90 14.5 29.0 0.00 0.00 0.00 84 1013.9
20260504200218 20 90 16.1 22.5 0.00 0.00 0.00 84 1014.0
20260504194717 20 90 16.1 25.7 0.00 0.00 0.00 84 1013.8
20260504193218 21 90 12.9 25.7 0.00 0.00 0.00 85 1013.8
20260504191717 -17 0.0 0.0 0.00 0.00 0.00
20260504190217 21 90 14.5 24.1 0.00 0.00 0.00 84 1014.1
20260504184718 21 90 14.5 27.4 0.00 0.00 0.00 85 1014.2
20260504183219 21 90 14.5 25.7 0.00 0.00 0.00 87 1014.2
20260504181717 -17 0.0 0.0 0.00 0.00 0.00
20260504180219 -17 0.0 0.0 0.00 0.00 0.00
20260504174719 22 90 12.9 20.9 0.00 0.00 0.00 84 1014.8
20260504173217 -17 0.0 0.0 0.00 0.00 0.00
20260504171718 22 90 14.5 24.1 0.00 0.00 0.00 81 1015.1